owner,sensor,date,latitude,longitude,vertical_datum,sea_water_speed,direction_of_sea_water_velocity,upward_sea_water_velocity,qcFlag
BP,ioos:station:wmo:42369:4,2020-11-01T00:00:00Z,27.2127,-90.2883,1343.0,2.7,252.9,-9999.0,'11133222,11111222,99999999'
BP,ioos:station:wmo:42369:4,2020-11-01T00:20:00Z,27.2128,-90.2881,1343.0,1.4,252.9,-9999.0,'11133222,11111222,99999999'
BP,ioos:station:wmo:42369:4,2020-11-01T00:40:00Z,27.2129,-90.2879,1343.0,2.3,287.7,-9999.0,'11133222,11111222,99999999'
BP,ioos:station:wmo:42369:4,2020-11-01T01:00:00Z,27.2130,-90.2877,1343.0,3.8,310.8,-9999.0,'11111222,11111222,99999999'
BP,ioos:station:wmo:42369:4,2020-11-01T01:20:00Z,27.2129,-90.2876,1343.0,3.8,355.5,-9999.0,'11111222,11111222,99999999'
BP,ioos:station:wmo:42369:4,2020-11-01T01:40:00Z,27.2129,-90.2876,1343.0,5.3,328.1,-9999.0,'11111222,11111222,99999999'
BP,ioos:station:wmo:42369:4,2020-11-01T02:00:00Z,27.2129,-90.2875,1343.0,4.1,353.0,-9999.0,'11111222,11111222,99999999'
BP,ioos:station:wmo:42369:4,2020-11-01T02:20:00Z,27.2128,-90.2875,1343.0,6.3,358.2,-9999.0,'11111222,11111222,99999999'
BP,ioos:station:wmo:42369:4,2020-11-01T02:40:00Z,27.2127,-90.2876,1343.0,6.1,12.2,-9999.0,'11111222,11111222,99999999'
BP,ioos:station:wmo:42369:4,2020-11-01T03:00:00Z,27.2127,-90.2876,1343.0,5.0,5.7,-9999.0,'11111222,11111222,99999999'
BP,ioos:station:wmo:42369:4,2020-11-01T03:20:00Z,27.2125,-90.2878,1343.0,7.2,18.7,-9999.0,'11111222,11111222,99999999'
BP,ioos:station:wmo:42369:4,2020-11-01T03:40:00Z,27.2124,-90.2879,1343.0,6.0,24.4,-9999.0,'11111222,11111222,99999999'
BP,ioos:station:wmo:42369:4,2020-11-01T04:00:00Z,27.2122,-90.2880,1343.0,5.6,21.0,-9999.0,'11111222,11111222,99999999'
BP,ioos:station:wmo:42369:4,2020-11-01T04:20:00Z,27.2119,-90.2882,1343.0,7.2,41.0,-9999.0,'11111222,11111222,99999999'
BP,ioos:station:wmo:42369:4,2020-11-01T04:40:00Z,27.2117,-90.2885,1343.0,7.2,23.0,-9999.0,'11111222,11111222,99999999'
BP,ioos:station:wmo:42369:4,2020-11-01T05:00:00Z,27.2112,-90.2888,1343.0,8.3,38.7,-9999.0,'11111222,11111222,99999999'
BP,ioos:station:wmo:42369:4,2020-11-01T05:20:00Z,27.2112,-90.2888,1343.0,8.1,36.4,-9999.0,'11111222,11111222,99999999'
BP,ioos:station:wmo:42369:4,2020-11-01T05:40:00Z,27.2110,-90.2889,1343.0,7.7,40.3,-9999.0,'11111222,11111222,99999999'
BP,ioos:station:wmo:42369:4,2020-11-01T06:00:00Z,27.2109,-90.2889,1343.0,8.0,49.6,-9999.0,'11111222,11111222,99999999'
BP,ioos:station:wmo:42369:4,2020-11-01T06:20:00Z,27.2107,-90.2890,1343.0,6.0,44.3,-9999.0,'11111222,11111222,99999999'
BP,ioos:station:wmo:42369:4,2020-11-01T06:40:00Z,27.2105,-90.2892,1343.0,6.2,48.3,-9999.0,'11111222,11111222,99999999'
BP,ioos:station:wmo:42369:4,2020-11-01T07:00:00Z,27.2102,-90.2893,1343.0,4.6,32.7,-9999.0,'11111222,11111222,99999999'
BP,ioos:station:wmo:42369:4,2020-11-01T09:00:00Z,27.2083,-90.2901,1343.0,5.6,59.7,-9999.0,'11111222,11111222,99999999'
BP,ioos:station:wmo:42369:4,2020-11-01T07:20:00Z,27.2100,-90.2895,1343.0,5.7,40.7,-9999.0,'11111222,11111222,99999999'
BP,ioos:station:wmo:42369:4,2020-11-01T07:40:00Z,27.2097,-90.2896,1343.0,5.8,52.0,-9999.0,'11111222,11111222,99999999'
BP,ioos:station:wmo:42369:4,2020-11-01T08:00:00Z,27.2093,-90.2898,1343.0,5.9,53.9,-9999.0,'11111222,11111222,99999999'
BP,ioos:station:wmo:42369:4,2020-11-01T08:20:00Z,27.2090,-90.2899,1343.0,6.3,54.0,-9999.0,'11111222,11111222,99999999'
BP,ioos:station:wmo:42369:4,2020-11-01T08:40:00Z,27.2086,-90.2900,1343.0,6.3,64.7,-9999.0,'11111222,11111222,99999999'
BP,ioos:station:wmo:42369:4,2020-11-01T09:20:00Z,27.2082,-90.2902,1343.0,5.7,61.6,-9999.0,'11111222,11111222,99999999'
BP,ioos:station:wmo:42369:4,2020-11-01T09:40:00Z,27.2080,-90.2902,1343.0,5.8,50.6,-9999.0,'11111222,11111222,99999999'
BP,ioos:station:wmo:42369:4,2020-11-01T10:00:00Z,27.2079,-90.2902,1343.0,6.0,54.5,-9999.0,'11111222,11111222,99999999'
BP,ioos:station:wmo:42369:4,2020-11-01T10:20:00Z,27.2080,-90.2902,1343.0,6.7,48.0,-9999.0,'11111222,11111222,99999999'
BP,ioos:station:wmo:42369:4,2020-11-01T10:40:00Z,27.2082,-90.2903,1343.0,5.6,64.8,-9999.0,'11111222,11111222,99999999'
BP,ioos:station:wmo:42369:4,2020-11-01T11:00:00Z,27.2085,-90.2904,1343.0,3.4,76.4,-9999.0,'11111222,11111222,99999999'
BP,ioos:station:wmo:42369:4,2020-11-01T11:20:00Z,27.2087,-90.2904,1343.0,4.4,76.9,-9999.0,'11111222,11111222,99999999'
BP,ioos:station:wmo:42369:4,2020-11-01T11:40:00Z,27.2092,-90.2907,1343.0,4.5,87.5,-9999.0,'11111222,11111222,99999999'
BP,ioos:station:wmo:42369:4,2020-11-01T12:00:00Z,27.2096,-90.2909,1343.0,4.9,99.5,-9999.0,'11111222,11111222,99999999'
BP,ioos:station:wmo:42369:4,2020-11-01T12:20:00Z,27.2098,-90.2910,1343.0,5.1,90.0,-9999.0,'11111222,11111222,99999999'
BP,ioos:station:wmo:42369:4,2020-11-01T12:40:00Z,27.2095,-90.2908,1343.0,3.9,79.6,-9999.0,'11111222,11111222,99999999'
BP,ioos:station:wmo:42369:4,2020-11-01T13:00:00Z,27.2092,-90.2902,1343.0,2.9,93.9,-9999.0,'11133222,11111222,99999999'
BP,ioos:station:wmo:42369:4,2020-11-01T13:20:00Z,27.2091,-90.2900,1343.0,2.8,75.5,-9999.0,'11133222,11111222,99999999'
BP,ioos:station:wmo:42369:4,2020-11-01T13:40:00Z,27.2093,-90.2899,1343.0,3.5,115.1,-9999.0,'11111222,11111222,99999999'
BP,ioos:station:wmo:42369:4,2020-11-01T14:00:00Z,27.2094,-90.2899,1343.0,3.5,130.4,-9999.0,'11111222,11111222,99999999'
BP,ioos:station:wmo:42369:4,2020-11-01T14:20:00Z,27.2097,-90.2898,1343.0,3.0,147.4,-9999.0,'11133222,11111222,99999999'
BP,ioos:station:wmo:42369:4,2020-11-01T14:40:00Z,27.2098,-90.2898,1343.0,3.1,149.3,-9999.0,'11111222,11111222,99999999'
BP,ioos:station:wmo:42369:4,2020-11-01T15:00:00Z,27.2100,-90.2897,1343.0,3.0,136.3,-9999.0,'11111222,11111222,99999999'
BP,ioos:station:wmo:42369:4,2020-11-01T15:20:00Z,27.2102,-90.2897,1343.0,2.6,162.3,-9999.0,'11133222,11111222,99999999'
BP,ioos:station:wmo:42369:4,2020-11-01T15:40:00Z,27.2103,-90.2896,1343.0,2.7,193.0,-9999.0,'11133222,11111222,99999999'
BP,ioos:station:wmo:42369:4,2020-11-01T16:00:00Z,27.2104,-90.2896,1343.0,2.0,206.6,-9999.0,'11133222,11111222,99999999'
BP,ioos:station:wmo:42369:4,2020-11-01T16:20:00Z,27.2106,-90.2895,1343.0,1.8,196.4,-9999.0,'11133222,11111222,99999999'
BP,ioos:station:wmo:42369:4,2020-11-01T16:40:00Z,27.2108,-90.2894,1343.0,3.0,201.4,-9999.0,'11111222,11111222,99999999'
BP,ioos:station:wmo:42369:4,2020-11-01T17:00:00Z,27.2109,-90.2893,1343.0,2.8,214.8,-9999.0,'11133222,11111222,99999999'
BP,ioos:station:wmo:42369:4,2020-11-01T17:20:00Z,27.2111,-90.2892,1343.0,1.8,180.0,-9999.0,'11133222,11111222,99999999'
BP,ioos:station:wmo:42369:4,2020-11-01T17:40:00Z,27.2112,-90.2892,1343.0,1.2,160.0,-9999.0,'11133222,11111222,99999999'
BP,ioos:station:wmo:42369:4,2020-11-01T18:00:00Z,27.2113,-90.2892,1343.0,1.4,59.7,-9999.0,'11133222,11111222,99999999'
BP,ioos:station:wmo:42369:4,2020-11-01T18:20:00Z,27.2114,-90.2892,1343.0,1.6,42.5,-9999.0,'11133222,11111222,99999999'
BP,ioos:station:wmo:42369:4,2020-11-01T18:40:00Z,27.2114,-90.2891,1343.0,2.5,36.9,-9999.0,'11133222,11111222,99999999'
BP,ioos:station:wmo:42369:4,2020-11-01T19:00:00Z,27.2115,-90.2891,1343.0,2.9,46.4,-9999.0,'11133222,11111222,99999999'
BP,ioos:station:wmo:42369:4,2020-11-01T19:20:00Z,27.2116,-90.2891,1343.0,2.7,61.6,-9999.0,'11133222,11111222,99999999'
BP,ioos:station:wmo:42369:4,2020-11-01T19:40:00Z,27.2116,-90.2891,1343.0,3.1,51.6,-9999.0,'11111222,11111222,99999999'
BP,ioos:station:wmo:42369:4,2020-11-01T20:00:00Z,27.2117,-90.2889,1343.0,1.7,35.5,-9999.0,'11133222,11111222,99999999'
BP,ioos:station:wmo:42369:4,2020-11-01T20:20:00Z,27.2118,-90.2889,1343.0,2.4,347.7,-9999.0,'11133222,11111222,99999999'
BP,ioos:station:wmo:42369:4,2020-11-01T20:40:00Z,27.2118,-90.2889,1343.0,2.1,0.0,-9999.0,'11133222,11144222,99999999'
BP,ioos:station:wmo:42369:4,2020-11-01T21:00:00Z,27.2118,-90.2889,1343.0,3.2,356.4,-9999.0,'11111222,11111222,99999999'
BP,ioos:station:wmo:42369:4,2020-11-01T21:40:00Z,27.2118,-90.2889,1343.0,5.1,29.6,-9999.0,'11111222,11111222,99999999'
BP,ioos:station:wmo:42369:4,2020-11-01T21:20:00Z,27.2119,-90.2888,1343.0,4.8,4.8,-9999.0,'11111222,11111222,99999999'
BP,ioos:station:wmo:42369:4,2020-11-01T22:00:00Z,27.2120,-90.2888,1343.0,4.3,52.6,-9999.0,'11111222,11111222,99999999'
BP,ioos:station:wmo:42369:4,2020-11-02T00:00:00Z,27.2123,-90.2882,1343.0,5.8,24.4,-9999.0,'11111222,11111222,99999999'
BP,ioos:station:wmo:42369:4,2020-11-01T22:20:00Z,27.2120,-90.2888,1343.0,4.5,45.0,-9999.0,'11111222,11111222,99999999'
BP,ioos:station:wmo:42369:4,2020-11-01T22:40:00Z,27.2121,-90.2886,1343.0,4.1,34.1,-9999.0,'11111222,11111222,99999999'
BP,ioos:station:wmo:42369:4,2020-11-01T23:00:00Z,27.2122,-90.2885,1343.0,4.8,39.0,-9999.0,'11111222,11111222,99999999'
BP,ioos:station:wmo:42369:4,2020-11-01T23:20:00Z,27.2122,-90.2884,1343.0,4.5,24.9,-9999.0,'11111222,11111222,99999999'
BP,ioos:station:wmo:42369:4,2020-11-01T23:40:00Z,27.2123,-90.2883,1343.0,4.8,37.3,-9999.0,'11111222,11111222,99999999'
BP,ioos:station:wmo:42369:4,2020-11-02T00:20:00Z,27.2123,-90.2882,1343.0,4.6,72.3,-9999.0,'11111222,11111222,99999999'
BP,ioos:station:wmo:42369:4,2020-11-02T00:40:00Z,27.2123,-90.2882,1343.0,3.9,67.4,-9999.0,'11111222,11111222,99999999'
BP,ioos:station:wmo:42369:4,2020-11-02T01:00:00Z,27.2123,-90.2882,1343.0,2.5,36.9,-9999.0,'11133222,11111222,99999999'
BP,ioos:station:wmo:42369:4,2020-11-02T01:20:00Z,27.2123,-90.2882,1343.0,2.5,25.6,-9999.0,'11133222,11111222,99999999'
BP,ioos:station:wmo:42369:4,2020-11-02T01:40:00Z,27.2123,-90.2882,1343.0,3.7,38.4,-9999.0,'11111222,11111222,99999999'
BP,ioos:station:wmo:42369:4,2020-11-02T02:00:00Z,27.2124,-90.2882,1343.0,2.5,36.9,-9999.0,'11133222,11111222,99999999'
BP,ioos:station:wmo:42369:4,2020-11-02T02:20:00Z,27.2123,-90.2882,1343.0,3.4,15.3,-9999.0,'11111222,11111222,99999999'
BP,ioos:station:wmo:42369:4,2020-11-02T02:40:00Z,27.2123,-90.2882,1343.0,2.5,16.3,-9999.0,'11133222,11111222,99999999'
BP,ioos:station:wmo:42369:4,2020-11-02T03:00:00Z,27.2123,-90.2882,1343.0,3.3,347.7,-9999.0,'11111222,11111222,99999999'
BP,ioos:station:wmo:42369:4,2020-11-02T03:20:00Z,27.2123,-90.2883,1343.0,3.6,23.0,-9999.0,'11111222,11111222,99999999'
BP,ioos:station:wmo:42369:4,2020-11-02T03:40:00Z,27.2122,-90.2884,1343.0,2.7,56.9,-9999.0,'11133222,11111222,99999999'
BP,ioos:station:wmo:42369:4,2020-11-02T04:00:00Z,27.2121,-90.2885,1343.0,3.3,46.2,-9999.0,'11111222,11111222,99999999'
BP,ioos:station:wmo:42369:4,2020-11-02T04:20:00Z,27.2119,-90.2887,1343.0,3.8,71.6,-9999.0,'11111222,11111222,99999999'
BP,ioos:station:wmo:42369:4,2020-11-02T04:40:00Z,27.2118,-90.2888,1343.0,2.8,81.9,-9999.0,'11133222,11111222,99999999'
BP,ioos:station:wmo:42369:4,2020-11-02T05:00:00Z,27.2116,-90.2890,1343.0,2.2,90.0,-9999.0,'11133222,11111222,99999999'
BP,ioos:station:wmo:42369:4,2020-11-02T05:20:00Z,27.2114,-90.2893,1343.0,3.1,121.6,-9999.0,'11111222,11111222,99999999'
BP,ioos:station:wmo:42369:4,2020-11-02T05:40:00Z,27.2114,-90.2893,1343.0,2.6,125.5,-9999.0,'11133222,11111222,99999999'
BP,ioos:station:wmo:42369:4,2020-11-02T06:00:00Z,27.2109,-90.2898,1343.0,2.6,133.5,-9999.0,'11133222,11111222,99999999'
BP,ioos:station:wmo:42369:4,2020-11-02T09:00:00Z,27.2082,-90.2909,1343.0,1.9,154.8,-9999.0,'11133222,11111222,99999999'
BP,ioos:station:wmo:42369:4,2020-11-02T06:40:00Z,27.2078,-90.2909,1343.0,2.3,124.4,-9999.0,'11133222,11111222,99999999'
BP,ioos:station:wmo:42369:4,2020-11-02T07:00:00Z,27.2077,-90.2909,1343.0,2.1,150.9,-9999.0,'11133222,11111222,99999999'
BP,ioos:station:wmo:42369:4,2020-11-02T07:20:00Z,27.2075,-90.2910,1343.0,3.2,146.3,-9999.0,'11111222,11111222,99999999'
BP,ioos:station:wmo:42369:4,2020-11-02T09:20:00Z,27.2079,-90.2909,1343.0,2.1,160.7,-9999.0,'11133222,11111222,99999999'
BP,ioos:station:wmo:42369:4,2020-11-02T12:40:00Z,27.2075,-90.2904,1343.0,3.5,112.1,-9999.0,'11111222,11111222,99999999'
BP,ioos:station:wmo:42369:4,2020-11-02T07:40:00Z,27.2073,-90.2910,1343.0,3.0,140.4,-9999.0,'11133222,11111222,99999999'
BP,ioos:station:wmo:42369:4,2020-11-02T08:00:00Z,27.2072,-90.2910,1343.0,2.8,152.5,-9999.0,'11133222,11111222,99999999'
BP,ioos:station:wmo:42369:4,2020-11-02T08:20:00Z,27.2071,-90.2910,1343.0,2.9,166.0,-9999.0,'11133222,11111222,99999999'
BP,ioos:station:wmo:42369:4,2020-11-02T08:40:00Z,27.2071,-90.2910,1343.0,1.7,151.9,-9999.0,'11133222,11111222,99999999'
BP,ioos:station:wmo:42369:4,2020-11-02T09:40:00Z,27.2074,-90.2910,1343.0,1.4,120.3,-9999.0,'11133222,11111222,99999999'
BP,ioos:station:wmo:42369:4,2020-11-02T10:00:00Z,27.2072,-90.2910,1343.0,2.1,131.2,-9999.0,'11133222,11111222,99999999'
BP,ioos:station:wmo:42369:4,2020-11-02T10:20:00Z,27.2070,-90.2909,1343.0,0.6,128.7,-9999.0,'11133222,11111222,99999999'
BP,ioos:station:wmo:42369:4,2020-11-02T10:40:00Z,27.2070,-90.2908,1343.0,1.9,145.5,-9999.0,'11133222,11111222,99999999'
BP,ioos:station:wmo:42369:4,2020-11-02T11:00:00Z,27.2069,-90.2907,1343.0,0.4,180.0,-9999.0,'11133222,11111222,99999999'
BP,ioos:station:wmo:42369:4,2020-11-02T11:20:00Z,27.2068,-90.2907,1343.0,3.0,90.0,-9999.0,'11111222,11111222,99999999'
BP,ioos:station:wmo:42369:4,2020-11-02T11:40:00Z,27.2070,-90.2905,1343.0,2.4,97.1,-9999.0,'11133222,11111222,99999999'
BP,ioos:station:wmo:42369:4,2020-11-02T12:00:00Z,27.2071,-90.2904,1343.0,3.1,103.1,-9999.0,'11111222,11111222,99999999'
BP,ioos:station:wmo:42369:4,2020-11-02T12:20:00Z,27.2073,-90.2905,1343.0,2.5,94.6,-9999.0,'11133222,11111222,99999999'
BP,ioos:station:wmo:42369:4,2020-11-02T13:00:00Z,27.2077,-90.2903,1343.0,3.1,129.8,-9999.0,'11111222,11111222,99999999'
BP,ioos:station:wmo:42369:4,2020-11-02T13:20:00Z,27.2080,-90.2903,1343.0,3.8,144.6,-9999.0,'11111222,11111222,99999999'
BP,ioos:station:wmo:42369:4,2020-11-02T13:40:00Z,27.2083,-90.2902,1343.0,5.2,145.1,-9999.0,'11111222,11111222,99999999'
BP,ioos:station:wmo:42369:4,2020-11-02T14:00:00Z,27.2085,-90.2901,1343.0,4.1,152.2,-9999.0,'11111222,11111222,99999999'
BP,ioos:station:wmo:42369:4,2020-11-02T14:20:00Z,27.2089,-90.2900,1343.0,6.1,158.0,-9999.0,'11111222,11111222,99999999'
BP,ioos:station:wmo:42369:4,2020-11-02T14:40:00Z,27.2092,-90.2898,1343.0,7.4,157.6,-9999.0,'11111222,11111222,99999999'
BP,ioos:station:wmo:42369:4,2020-11-02T15:00:00Z,27.2094,-90.2897,1343.0,6.1,164.8,-9999.0,'11111222,11111222,99999999'
BP,ioos:station:wmo:42369:4,2020-11-02T15:20:00Z,27.2097,-90.2896,1343.0,8.9,170.3,-9999.0,'11111222,11111222,99999999'
BP,ioos:station:wmo:42369:4,2020-11-02T15:40:00Z,27.2099,-90.2895,1343.0,8.9,178.1,-9999.0,'11111222,11111222,99999999'
BP,ioos:station:wmo:42369:4,2020-11-02T16:00:00Z,27.2100,-90.2894,1343.0,8.0,180.0,-9999.0,'11111222,11111222,99999999'
BP,ioos:station:wmo:42369:4,2020-11-02T16:20:00Z,27.2101,-90.2894,1343.0,8.5,178.0,-9999.0,'11111222,11111222,99999999'
BP,ioos:station:wmo:42369:4,2020-11-02T16:40:00Z,27.2103,-90.2893,1343.0,8.2,192.0,-9999.0,'11111222,11111222,99999999'
BP,ioos:station:wmo:42369:4,2020-11-02T17:00:00Z,27.2104,-90.2891,1343.0,8.4,195.2,-9999.0,'11111222,11111222,99999999'
BP,ioos:station:wmo:42369:4,2020-11-02T17:20:00Z,27.2105,-90.2890,1343.0,7.8,201.0,-9999.0,'11111222,11111222,99999999'
BP,ioos:station:wmo:42369:4,2020-11-02T18:00:00Z,27.2107,-90.2887,1343.0,7.7,200.6,-9999.0,'11111222,11111222,99999999'
BP,ioos:station:wmo:42369:4,2020-11-02T17:40:00Z,27.2106,-90.2888,1343.0,7.4,201.4,-9999.0,'11111222,11111222,99999999'
BP,ioos:station:wmo:42369:4,2020-11-02T18:20:00Z,27.2108,-90.2887,1343.0,7.1,193.1,-9999.0,'11111222,11111222,99999999'
BP,ioos:station:wmo:42369:4,2020-11-02T18:40:00Z,27.2109,-90.2886,1343.0,5.9,200.9,-9999.0,'11111222,11111222,99999999'
BP,ioos:station:wmo:42369:4,2020-11-02T19:00:00Z,27.2108,-90.2886,1343.0,5.1,193.5,-9999.0,'11111222,11111222,99999999'
BP,ioos:station:wmo:42369:4,2020-11-02T19:20:00Z,27.2109,-90.2885,1343.0,6.6,204.2,-9999.0,'11111222,11111222,99999999'
BP,ioos:station:wmo:42369:4,2020-11-02T19:40:00Z,27.2109,-90.2885,1343.0,5.3,218.2,-9999.0,'11111222,11111222,99999999'
BP,ioos:station:wmo:42369:4,2020-11-02T20:00:00Z,27.2110,-90.2884,1343.0,6.3,239.3,-9999.0,'11111222,11111222,99999999'
BP,ioos:station:wmo:42369:4,2020-11-02T20:20:00Z,27.2110,-90.2882,1343.0,8.0,246.3,-9999.0,'11111222,11111222,99999999'
BP,ioos:station:wmo:42369:4,2020-11-02T20:40:00Z,27.2112,-90.2880,1343.0,7.4,239.3,-9999.0,'11111222,11111222,99999999'
BP,ioos:station:wmo:42369:4,2020-11-02T21:00:00Z,27.2113,-90.2878,1343.0,6.2,238.1,-9999.0,'11111222,11111222,99999999'
BP,ioos:station:wmo:42369:4,2020-11-02T21:20:00Z,27.2113,-90.2876,1343.0,4.4,238.1,-9999.0,'11111222,11111222,99999999'
BP,ioos:station:wmo:42369:4,2020-11-02T21:40:00Z,27.2115,-90.2874,1343.0,3.6,231.8,-9999.0,'11111222,11111222,99999999'
BP,ioos:station:wmo:42369:4,2020-11-02T22:00:00Z,27.2116,-90.2872,1343.0,3.3,226.2,-9999.0,'11111222,11111222,99999999'
BP,ioos:station:wmo:42369:4,2020-11-02T22:20:00Z,27.2117,-90.2870,1343.0,4.1,232.9,-9999.0,'11111222,11111222,99999999'
BP,ioos:station:wmo:42369:4,2020-11-02T22:40:00Z,27.2118,-90.2869,1343.0,5.2,249.8,-9999.0,'11111222,11111222,99999999'
BP,ioos:station:wmo:42369:4,2020-11-02T23:00:00Z,27.2119,-90.2867,1343.0,6.5,270.0,-9999.0,'11111222,11111222,99999999'
BP,ioos:station:wmo:42369:4,2020-11-02T23:20:00Z,27.2119,-90.2866,1343.0,3.8,257.8,-9999.0,'11111222,11111222,99999999'
BP,ioos:station:wmo:42369:4,2020-11-02T23:40:00Z,27.2120,-90.2865,1343.0,3.9,270.0,-9999.0,'11111222,11111222,99999999'
BP,ioos:station:wmo:42369:4,2020-11-03T00:00:00Z,27.2121,-90.2864,1343.0,3.7,270.0,-9999.0,'11111222,11111222,99999999'
BP,ioos:station:wmo:42369:4,2020-11-03T00:20:00Z,27.2122,-90.2863,1343.0,4.0,278.5,-9999.0,'11111222,11111222,99999999'
BP,ioos:station:wmo:42369:4,2020-11-03T00:40:00Z,27.2123,-90.2863,1343.0,5.3,286.4,-9999.0,'11111222,11111222,99999999'
BP,ioos:station:wmo:42369:4,2020-11-03T01:00:00Z,27.2123,-90.2862,1343.0,6.4,277.2,-9999.0,'11111222,11111222,99999999'
BP,ioos:station:wmo:42369:4,2020-11-03T01:20:00Z,27.2123,-90.2862,1343.0,5.3,284.3,-9999.0,'11111222,11111222,99999999'
BP,ioos:station:wmo:42369:4,2020-11-03T01:40:00Z,27.2123,-90.2863,1343.0,4.8,283.2,-9999.0,'11111222,11111222,99999999'
BP,ioos:station:wmo:42369:4,2020-11-03T02:00:00Z,27.2123,-90.2864,1343.0,4.3,275.3,-9999.0,'11111222,11111222,99999999'
BP,ioos:station:wmo:42369:4,2020-11-03T02:20:00Z,27.2123,-90.2865,1343.0,4.4,262.2,-9999.0,'11111222,11111222,99999999'
BP,ioos:station:wmo:42369:4,2020-11-03T03:00:00Z,27.2123,-90.2866,1343.0,3.5,280.0,-9999.0,'11111222,11111222,99999999'
BP,ioos:station:wmo:42369:4,2020-11-03T02:40:00Z,27.2123,-90.2866,1343.0,4.9,274.7,-9999.0,'11111222,11111222,99999999'
BP,ioos:station:wmo:42369:4,2020-11-03T03:20:00Z,27.2123,-90.2868,1343.0,3.8,270.0,-9999.0,'11111222,11111222,99999999'
BP,ioos:station:wmo:42369:4,2020-11-03T03:40:00Z,27.2123,-90.2870,1343.0,3.4,268.3,-9999.0,'11111222,11111222,99999999'
BP,ioos:station:wmo:42369:4,2020-11-03T04:00:00Z,27.2123,-90.2870,1343.0,3.2,282.7,-9999.0,'11111222,11111222,99999999'
BP,ioos:station:wmo:42369:4,2020-11-03T04:20:00Z,27.2124,-90.2872,1343.0,4.7,263.9,-9999.0,'11111222,11111222,99999999'
BP,ioos:station:wmo:42369:4,2020-11-03T04:40:00Z,27.2124,-90.2873,1343.0,5.8,280.9,-9999.0,'11111222,11111222,99999999'
BP,ioos:station:wmo:42369:4,2020-11-03T05:00:00Z,27.2124,-90.2875,1343.0,5.6,317.2,-9999.0,'11111222,11111222,99999999'
BP,ioos:station:wmo:42369:4,2020-11-03T05:20:00Z,27.2123,-90.2876,1343.0,3.9,324.3,-9999.0,'11111222,11111222,99999999'
BP,ioos:station:wmo:42369:4,2020-11-03T05:40:00Z,27.2122,-90.2877,1343.0,6.8,345.6,-9999.0,'11111222,11111222,99999999'
BP,ioos:station:wmo:42369:4,2020-11-03T11:40:00Z,27.2082,-90.2907,1343.0,2.0,302.9,-9999.0,'11133222,11111222,99999999'
BP,ioos:station:wmo:42369:4,2020-11-03T12:00:00Z,27.2079,-90.2908,1343.0,1.4,315.0,-9999.0,'11133222,11111222,99999999'
BP,ioos:station:wmo:42369:4,2020-11-03T12:20:00Z,27.2076,-90.2908,1343.0,1.3,13.0,-9999.0,'11133222,11111222,99999999'
BP,ioos:station:wmo:42369:4,2020-11-03T12:40:00Z,27.2073,-90.2908,1343.0,0.8,7.1,-9999.0,'11133222,11111222,99999999'
BP,ioos:station:wmo:42369:4,2020-11-03T13:00:00Z,27.2070,-90.2908,1343.0,0.2,0.0,-9999.0,'11133222,11144222,99999999'
BP,ioos:station:wmo:42369:4,2020-11-03T13:20:00Z,27.2068,-90.2907,1343.0,0.2,0.0,-9999.0,'11133222,11144222,99999999'
BP,ioos:station:wmo:42369:4,2020-11-03T13:40:00Z,27.2068,-90.2905,1343.0,0.8,246.8,-9999.0,'11133222,11111222,99999999'
BP,ioos:station:wmo:42369:4,2020-11-03T15:00:00Z,27.2076,-90.2901,1343.0,0.8,166.0,-9999.0,'11133222,11111222,99999999'
BP,ioos:station:wmo:42369:4,2020-11-03T14:00:00Z,27.2069,-90.2904,1343.0,0.3,108.4,-9999.0,'11133222,11111222,99999999'
BP,ioos:station:wmo:42369:4,2020-11-03T14:20:00Z,27.2072,-90.2903,1343.0,1.1,79.7,-9999.0,'11133222,11111222,99999999'
BP,ioos:station:wmo:42369:4,2020-11-03T14:40:00Z,27.2074,-90.2902,1343.0,1.2,99.5,-9999.0,'11133222,11111222,99999999'
BP,ioos:station:wmo:42369:4,2020-11-03T18:00:00Z,27.2079,-90.2900,1343.0,6.7,255.3,-9999.0,'11111222,11111222,99999999'
BP,ioos:station:wmo:42369:4,2020-11-03T06:00:00Z,27.2121,-90.2878,1343.0,7.6,3.8,-9999.0,'11111222,11111222,99999999'
BP,ioos:station:wmo:42369:4,2020-11-03T06:20:00Z,27.2119,-90.2880,1343.0,7.0,358.4,-9999.0,'11111222,11111222,99999999'
BP,ioos:station:wmo:42369:4,2020-11-03T06:40:00Z,27.2116,-90.2884,1343.0,7.9,352.0,-9999.0,'11111222,11111222,99999999'
BP,ioos:station:wmo:42369:4,2020-11-03T07:00:00Z,27.2114,-90.2887,1343.0,7.7,349.6,-9999.0,'11111222,11111222,99999999'
BP,ioos:station:wmo:42369:4,2020-11-03T07:20:00Z,27.2113,-90.2889,1343.0,6.9,351.6,-9999.0,'11111222,11111222,99999999'
BP,ioos:station:wmo:42369:4,2020-11-03T07:40:00Z,27.2111,-90.2892,1343.0,5.8,0.0,-9999.0,'11111222,11144222,99999999'
BP,ioos:station:wmo:42369:4,2020-11-03T08:00:00Z,27.2108,-90.2895,1343.0,4.2,25.3,-9999.0,'11111222,11111222,99999999'
BP,ioos:station:wmo:42369:4,2020-11-03T08:20:00Z,27.2106,-90.2896,1343.0,4.6,11.3,-9999.0,'11111222,11111222,99999999'
BP,ioos:station:wmo:42369:4,2020-11-03T08:40:00Z,27.2104,-90.2897,1343.0,2.9,350.2,-9999.0,'11133222,11111222,99999999'
BP,ioos:station:wmo:42369:4,2020-11-03T09:00:00Z,27.2102,-90.2899,1343.0,1.9,11.9,-9999.0,'11133222,11111222,99999999'
BP,ioos:station:wmo:42369:4,2020-11-03T09:20:00Z,27.2100,-90.2900,1343.0,0.8,330.3,-9999.0,'11133222,11111222,99999999'
BP,ioos:station:wmo:42369:4,2020-11-03T09:40:00Z,27.2098,-90.2901,1343.0,2.1,318.8,-9999.0,'11133222,11111222,99999999'
BP,ioos:station:wmo:42369:4,2020-11-03T10:00:00Z,27.2096,-90.2901,1343.0,1.8,319.4,-9999.0,'11133222,11111222,99999999'
BP,ioos:station:wmo:42369:4,2020-11-03T10:20:00Z,27.2094,-90.2902,1343.0,2.6,302.5,-9999.0,'11133222,11111222,99999999'
BP,ioos:station:wmo:42369:4,2020-11-03T10:40:00Z,27.2091,-90.2904,1343.0,2.2,290.9,-9999.0,'11133222,11111222,99999999'
BP,ioos:station:wmo:42369:4,2020-11-03T11:00:00Z,27.2089,-90.2905,1343.0,2.6,302.5,-9999.0,'11133222,11111222,99999999'
BP,ioos:station:wmo:42369:4,2020-11-03T11:20:00Z,27.2085,-90.2906,1343.0,1.1,303.7,-9999.0,'11133222,11111222,99999999'
BP,ioos:station:wmo:42369:4,2020-11-03T15:20:00Z,27.2077,-90.2902,1343.0,2.3,180.0,-9999.0,'11133222,11111222,99999999'
BP,ioos:station:wmo:42369:4,2020-11-03T15:40:00Z,27.2077,-90.2901,1343.0,3.4,205.8,-9999.0,'11111222,11111222,99999999'
BP,ioos:station:wmo:42369:4,2020-11-03T16:00:00Z,27.2077,-90.2900,1343.0,3.5,202.1,-9999.0,'11111222,11111222,99999999'
BP,ioos:station:wmo:42369:4,2020-11-03T16:20:00Z,27.2078,-90.2900,1343.0,3.8,213.3,-9999.0,'11111222,11111222,99999999'
BP,ioos:station:wmo:42369:4,2020-11-03T16:40:00Z,27.2078,-90.2900,1343.0,5.1,209.1,-9999.0,'11111222,11111222,99999999'
BP,ioos:station:wmo:42369:4,2020-11-03T17:00:00Z,27.2078,-90.2899,1343.0,4.5,231.3,-9999.0,'11111222,11111222,99999999'
BP,ioos:station:wmo:42369:4,2020-11-03T17:20:00Z,27.2079,-90.2900,1343.0,5.3,240.5,-9999.0,'11111222,11111222,99999999'